Notices

Please take our survey and provide feedback: https://eccc.sondage-survey.ca/f/LanguageSelection.aspx?s=442ca660-fcf1-47c0-95a9-59707d6fd709

Please note that for the Engineering Climate Datasets, IDF dataset is available through this link.  Intensity-Duration-Frequency (IDF) Files: Includes the latest version of short-duration rainfall Intensity-Duration-Frequency (IDF) statistics in the form of tables and graphs with accompanying documentation for various locations across Canada.  Current IDF files can be accessed through our station finder application or downloaded for each province and territory across Canada.  In addition, historical versions of IDF files are also available for download.  Updates of IDF files are provided approximately every two years depending on the availability of data.   Thank you for your patience as we enhance our systems.

Hourly Data Report for October 05, 2019

CORAL HARBOUR A
NUNAVUT
Current Station Operator: NAVCAN

64°11'36.000" N
83°21'34.000" W
62.20 m
2301002
71915
YZS

Download Data

Hourly Data (October 2019)
Hourly Data Report for October 5, 2019
TIME
LST
Temp Definition
°C
Dew Point Definition
°C
Rel Hum Definition
%
Precip. Amount Definition
mm

Wind Dir Definition
10's deg

Wind Spd Definition
km/h
Visibility Definition
km
Stn Press Definition
kPa
Hmdx Definition


Wind Chill Definition


Weather Definition


00:00 0.9 0.8 100   36 1 0.4 99.94     Drizzle,Fog
01:00 0.7 0.7 100   3 13 0.2 99.92     Drizzle,Fog
02:00 0.5 0.4 99   6 7 0.2 99.91     Drizzle,Fog
03:00 0.2 0.1 99   7 15 0.4 99.89     Drizzle,Fog
04:00 0.2 -0.1 98   8 19 0.2 99.88     Drizzle,Fog
05:00 0.0 -0.4 97   8 19 1.6 99.87   -5 Snow,Fog
06:00 -0.1 -0.5 97   8 19 1.6 99.84   -5 Snow,Fog
07:00 -0.1 -0.7 96   9 18 9.7 99.79   -5 Snow,Fog
08:00 -0.1 -0.9 95   10 17 24.1 99.75   -5 Snow
09:00 -0.1 -1.0 94   9 30 24.1 99.70   -7 LegendNANA
10:00 0.0 -0.8 95   10 22 24.1 99.67   -6 Snow
11:00 0.1 -0.5 96   10 21 24.1 99.64     Snow
12:00 0.2 -0.3 96   10 25 19.3 99.55     Drizzle
13:00 0.2 -0.1 98   10 26 4.8 99.49     Drizzle,Fog
14:00 0.4 0.2 99   10 21 0.8 99.42     Drizzle,Fog
15:00 0.5 0.4 99   10 20 0.8 99.36     Drizzle,Fog
16:00 0.6 0.5 99   9 22 0.4 99.30     Drizzle,Fog
17:00 0.7 0.6 99   9 19 0.4 99.23     Drizzle,Fog
18:00 0.7 0.6 99   8 16 0.4 99.17     Drizzle,Fog
19:00 0.8 0.8 99   9 14 0.4 99.09     Drizzle,Fog
20:00 0.8 0.8 100   10 12 0.2 99.07     Drizzle,Fog
21:00 1.1 1.0 100   9 10 0.2 99.00     Drizzle,Fog
22:00 0.9 0.9 100   8 8 0.2 98.96     Drizzle,Fog
23:00 1.0 0.9 100   8 10 0.2 98.90     Drizzle,Fog

Notes on Data Quality.

Legend

  • E = Estimated
  • M = Missing
  • NA = Not Available*
  • [empty] = Indicates an unobserved value
Date modified: